KAL1211 ZSAM-ZSAM

Flight info

Callsign KAL1211
Flight time 0h 24m
Altitude 25600
Route NUSPA9Z NUSPA DCT TEBON DCT KADUG DCT LAMIM DCT ATSAB
Aircraft B77W/H-SDE1E2E3FGHIJ2J3J4J5M1RWXY/LB1D1

Departure

Time 2026-05-05 09:23
Airport Xiamen Gaoqi International Airport (ZSAM)

Arrival

Time 2026-05-05 09:47
Airport Xiamen Gaoqi International Airport (ZSAM)
Time Latitude Longitude Altitude Speed Heading
2026-05-05 08:50 24.53966 118.12808 52 ft 0 kts 144°
2026-05-05 09:01 24.54036 118.12896 52 ft 0 kts 143°
2026-05-05 09:05 24.54044 118.12890 52 ft 3 kts 143°
2026-05-05 09:05 24.54058 118.12878 52 ft 3 kts 145°
2026-05-05 09:05 24.54075 118.12869 52 ft 3 kts 176°
2026-05-05 09:05 24.54092 118.12872 51 ft 3 kts 217°
2026-05-05 09:06 24.54106 118.12887 51 ft 3 kts 233°
2026-05-05 09:06 24.54113 118.12897 51 ft 1 kts 233°
2026-05-05 09:11 24.54108 118.12890 60 ft 2 kts 233°
2026-05-05 09:11 24.54094 118.12868 51 ft 5 kts 233°
2026-05-05 09:11 24.54069 118.12831 53 ft 7 kts 233°
2026-05-05 09:11 24.54034 118.12781 52 ft 9 kts 232°
2026-05-05 09:12 24.53988 118.12716 53 ft 12 kts 232°
2026-05-05 09:12 24.53934 118.12641 53 ft 13 kts 232°
2026-05-05 09:12 24.53944 118.12551 53 ft 14 kts 320°
2026-05-05 09:12 24.53997 118.12465 58 ft 13 kts 263°
2026-05-05 09:13 24.53935 118.12387 56 ft 15 kts 228°
2026-05-05 09:13 24.53867 118.12294 55 ft 17 kts 232°
2026-05-05 09:13 24.53792 118.12188 56 ft 18 kts 232°
2026-05-05 09:13 24.53709 118.12073 56 ft 20 kts 232°
2026-05-05 09:14 24.53622 118.11950 57 ft 20 kts 232°
2026-05-05 09:14 24.53535 118.11827 58 ft 20 kts 232°
2026-05-05 09:14 24.53446 118.11706 59 ft 20 kts 231°
2026-05-05 09:14 24.53398 118.11589 65 ft 13 kts 281°
2026-05-05 09:15 24.53399 118.11584 66 ft 0 kts 283°
2026-05-05 09:22 24.53422 118.11504 66 ft 17 kts 296°
2026-05-05 09:22 24.53488 118.11482 62 ft 9 kts 37°
2026-05-05 09:22 24.53539 118.11544 63 ft 22 kts 51°
2026-05-05 09:23 24.53849 118.11979 55 ft 126 kts 52°
2026-05-05 09:23 24.54608 118.13032 125 ft 217 kts 52°
2026-05-05 09:23 24.55258 118.14489 1348 ft 207 kts 88°
2026-05-05 09:23 24.54873 118.15981 1772 ft 215 kts 120°
2026-05-05 09:24 24.53690 118.17066 1259 ft 224 kts 154°
2026-05-05 09:24 24.52344 118.17664 1289 ft 201 kts 161°
2026-05-05 09:24 24.50960 118.17817 1269 ft 204 kts 182°
2026-05-05 09:24 24.49589 118.17558 1404 ft 197 kts 197°
2026-05-05 09:25 24.48339 118.16878 1823 ft 205 kts 216°
2026-05-05 09:25 24.47207 118.15900 1971 ft 210 kts 216°
2026-05-05 09:25 24.46014 118.14952 1808 ft 212 kts 218°
2026-05-05 09:25 24.44883 118.13966 1512 ft 204 kts 219°
2026-05-05 09:26 24.43849 118.12957 1605 ft 198 kts 224°
2026-05-05 09:26 24.42818 118.11897 1966 ft 207 kts 219°
2026-05-05 09:26 24.41651 118.10944 2162 ft 211 kts 217°
2026-05-05 09:26 24.40489 118.09974 2274 ft 207 kts 218°
2026-05-05 09:27 24.39589 118.08753 2495 ft 208 kts 245°
2026-05-05 09:27 24.38954 118.07258 2946 ft 226 kts 245°
2026-05-05 09:27 24.38267 118.05688 3361 ft 229 kts 244°
2026-05-05 09:27 24.37575 118.04116 3748 ft 228 kts 244°
2026-05-05 09:28 24.36906 118.02594 3985 ft 217 kts 245°
2026-05-05 09:28 24.36432 118.01069 3840 ft 210 kts 270°
2026-05-05 09:28 24.36852 117.99676 3482 ft 202 kts 314°
2026-05-05 09:28 24.37975 117.98870 3100 ft 190 kts 346°
2026-05-05 09:29 24.39253 117.98651 2756 ft 186 kts
2026-05-05 09:29 24.40473 117.98993 2461 ft 185 kts 25°
2026-05-05 09:29 24.41683 117.99560 2461 ft 190 kts 23°
2026-05-05 09:29 24.42893 118.00102 2440 ft 185 kts 23°
2026-05-05 09:30 24.44080 118.00635 2364 ft 183 kts 24°
2026-05-05 09:30 24.45247 118.01159 2225 ft 180 kts 24°
2026-05-05 09:30 24.46374 118.01704 2155 ft 175 kts 33°
2026-05-05 09:30 24.47201 118.02686 2100 ft 178 kts 54°
2026-05-05 09:31 24.47970 118.03771 1923 ft 180 kts 51°
2026-05-05 09:31 24.48731 118.04821 1573 ft 170 kts 52°
2026-05-05 09:31 24.49435 118.05803 1342 ft 158 kts 53°
2026-05-05 09:31 24.50110 118.06750 1138 ft 157 kts 52°
2026-05-05 09:32 24.50773 118.07675 936 ft 152 kts 52°
2026-05-05 09:32 24.51436 118.08591 752 ft 154 kts 52°
2026-05-05 09:32 24.52111 118.09517 579 ft 155 kts 54°
2026-05-05 09:32 24.52769 118.10466 332 ft 156 kts 53°
2026-05-05 09:33 24.53438 118.11399 121 ft 155 kts 54°
2026-05-05 09:33 24.54071 118.12293 54 ft 131 kts 51°
2026-05-05 09:33 24.54514 118.12907 51 ft 80 kts 51°
2026-05-05 09:33 24.54916 118.13469 50 ft 132 kts 52°
2026-05-05 09:34 24.55645 118.14480 424 ft 191 kts 49°
2026-05-05 09:34 24.56472 118.15596 1675 ft 187 kts 65°
2026-05-05 09:34 24.56806 118.16940 3085 ft 180 kts 83°
2026-05-05 09:34 24.56759 118.18381 3959 ft 213 kts 95°
2026-05-05 09:35 24.56545 118.20219 4053 ft 256 kts 96°
2026-05-05 09:35 24.54994 118.22929 4003 ft 200 kts 167°
2026-05-05 09:35 24.53668 118.22683 4037 ft 199 kts 215°
2026-05-05 09:36 24.52907 118.21460 4044 ft 199 kts 263°
2026-05-05 09:36 24.53052 118.19971 4074 ft 199 kts 280°
2026-05-05 09:36 24.52813 118.18501 4036 ft 201 kts 234°
2026-05-05 09:36 24.52164 118.17793 4047 ft 198 kts 218°
2026-05-05 09:37 24.51091 118.16823 4047 ft 200 kts 221°
2026-05-05 09:37 24.50058 118.15795 4051 ft 202 kts 223°
2026-05-05 09:37 24.48703 118.14363 4037 ft 202 kts 225°
2026-05-05 09:37 24.48044 118.13641 4024 ft 202 kts 225°
2026-05-05 09:38 24.47063 118.12543 4035 ft 200 kts 226°
2026-05-05 09:38 24.46099 118.11443 4015 ft 200 kts 227°
2026-05-05 09:38 24.45139 118.10335 4015 ft 200 kts 227°
2026-05-05 09:38 24.44193 118.09232 4072 ft 196 kts 227°
2026-05-05 09:39 24.43255 118.08130 4073 ft 199 kts 226°
2026-05-05 09:39 24.42304 118.07010 4091 ft 201 kts 227°
2026-05-05 09:39 24.41362 118.05893 4092 ft 197 kts 227°
2026-05-05 09:39 24.40441 118.04799 4089 ft 194 kts 227°
2026-05-05 09:40 24.39525 118.03710 4081 ft 194 kts 227°
2026-05-05 09:40 24.38614 118.02627 4079 ft 193 kts 227°
2026-05-05 09:40 24.37703 118.01544 4076 ft 194 kts 226°
2026-05-05 09:40 24.36783 118.00453 4053 ft 200 kts 227°
2026-05-05 09:41 24.36073 117.99172 4020 ft 199 kts 260°
2026-05-05 09:41 24.36236 117.97712 4055 ft 196 kts 300°
2026-05-05 09:41 24.37155 117.96630 4061 ft 194 kts 323°
2026-05-05 09:41 24.38238 117.95711 4047 ft 197 kts 323°
2026-05-05 09:42 24.39322 117.94801 4038 ft 194 kts 328°
2026-05-05 09:42 24.40584 117.94403 3711 ft 188 kts
2026-05-05 09:42 24.41666 117.95016 3298 ft 171 kts 51°
2026-05-05 09:42 24.42386 117.96024 3128 ft 164 kts 51°
2026-05-05 09:43 24.43098 117.96973 3157 ft 160 kts 51°
2026-05-05 09:43 24.43803 117.97938 3091 ft 165 kts 52°
2026-05-05 09:43 24.44513 117.98925 2867 ft 163 kts 52°
2026-05-05 09:43 24.45207 117.99894 2657 ft 161 kts 52°
2026-05-05 09:44 24.45896 118.00857 2448 ft 161 kts 52°
2026-05-05 09:44 24.46590 118.01827 2245 ft 162 kts 52°
2026-05-05 09:44 24.47288 118.02803 2030 ft 162 kts 52°
2026-05-05 09:44 24.47973 118.03760 1816 ft 162 kts 52°
2026-05-05 09:45 24.48670 118.04734 1604 ft 162 kts 52°
2026-05-05 09:45 24.49361 118.05701 1390 ft 161 kts 52°
2026-05-05 09:45 24.50039 118.06650 1160 ft 155 kts 52°
2026-05-05 09:45 24.50687 118.07555 971 ft 148 kts 51°
2026-05-05 09:46 24.51341 118.08446 785 ft 149 kts 52°
2026-05-05 09:46 24.51985 118.09358 588 ft 152 kts 54°
2026-05-05 09:46 24.52636 118.10276 397 ft 151 kts 53°
2026-05-05 09:46 24.53293 118.11194 183 ft 154 kts 53°
2026-05-05 09:47 24.53938 118.12103 61 ft 142 kts 53°
2026-05-05 09:47 24.54486 118.12868 53 ft 94 kts 53°
2026-05-05 09:47 24.54864 118.13393 51 ft 82 kts 50°
2026-05-05 09:47 24.55019 118.13612 50 ft 0 kts 55°